Home > Weather > Ho Chi Minh > Past weeks

Flag for Vietnam Weather for the Past 2 Weeks in Ho Chi Minh, Vietnam

Now
84 °F

Passing clouds.


Feels Like: 87 °F
Forecast: 78 / 93 °F
Wind: 9 mph from South

Location: Ho Chi Minh

Current Time: Feb 11, 2016 at 6:40:48 PM

Latest Report: Feb 11, 2016 at 6:00 PM


Visibility: N/A

Pressure: 29.83 "Hg

Humidity: 58%

Dew point: 68 °F

Location of Ho Chi MinhLocation

Historic Weather in Ho Chi Minh — Graph

°F

Ho Chi Minh Temperature Yesterday

Maximum temperature yesterday: 93 °F (at 2:00 PM)
Minimum temperature yesterday: 70 °F (at 4:30 AM)
Average temperature yesterday: 81 °F

High & Low Weather Summary for the Past Weeks

 TemperatureHumidityPressure
High97 °F (Jan 31, 1:30 PM)83% (Jan 29, 7:00 AM)30.01 "Hg (Jan 29, 7:00 AM)
Low64 °F (Feb 8, 4:30 AM)25% (Feb 7, 4:30 PM)29.74 "Hg (Feb 5, 2:30 PM)
Average82 °F58%29.87 "Hg
* Reported Jan 27 5:00 PM — Feb 11 5:30 PM, Ho Chi Minh, Weather by CustomWeather, © 2016

Note: Actual official high and low records may vary slightly from our data, if they occured in-between our weather recording intervals... More about our weather records

Advertising

Ho Chi Minh Weather History for the Previous 24 Hours

 ConditionsComfort  
Time TempWeatherWind HumidityBarometerVisibility
5:30 PM
Thu, Feb 11
86 °FScattered clouds.12 mph59%29.80 "HgN/A
5:00 PM88 °FScattered clouds.9 mph52%29.80 "HgN/A
4:30 PM91 °FScattered clouds.3 mph41%29.80 "HgN/A
4:00 PM91 °FScattered clouds.5 mph38%29.80 "HgN/A
3:30 PM91 °FScattered clouds.3 mph38%29.80 "HgN/A
3:00 PM91 °FScattered clouds.3 mph41%29.80 "HgN/A
2:30 PM93 °FScattered clouds.2 mph39%29.80 "HgN/A
2:00 PM91 °FScattered clouds.5 mph41%29.80 "HgN/A
1:30 PM91 °FScattered clouds.2 mph41%29.83 "HgN/A
1:00 PM90 °FScattered clouds.3 mph43%29.83 "HgN/A
12:30 PM90 °FScattered clouds.5 mph43%29.86 "HgN/A
12:00 PM90 °FPassing clouds.3 mph46%29.86 "HgN/A
11:30 AM88 °FSunny.3 mph49%29.86 "Hg10 mi
11:00 AM88 °FPassing clouds.5 mph52%29.89 "HgN/A
10:30 AM86 °FPassing clouds.6 mph55%29.92 "HgN/A
10:00 AM84 °FSunny.3 mph62%29.92 "Hg10 mi
9:00 AM81 °FPassing clouds.5 mph70%29.92 "HgN/A
8:30 AM79 °FPassing clouds.5 mph74%29.92 "HgN/A
8:00 AM77 °FSunny.3 mph79%29.92 "Hg10 mi
7:00 AM73 °FPassing clouds.2 mph83%29.89 "HgN/A
6:30 AM75 °FPassing clouds.3 mph78%29.89 "HgN/A
6:00 AM75 °FPassing clouds.3 mph74%29.86 "HgN/A
5:30 AM77 °FPassing clouds.3 mph74%29.86 "HgN/A
4:30 AM75 °FPassing clouds.1 mph74%29.83 "HgN/A
4:00 AM75 °FPassing clouds.1 mph74%29.83 "HgN/A
3:30 AM75 °FPassing clouds.2 mph74%29.83 "HgN/A
3:00 AM77 °FPassing clouds.3 mph74%29.83 "HgN/A
2:30 AM77 °FPassing clouds.7 mph74%29.83 "HgN/A
2:00 AM79 °FPassing clouds.7 mph70%29.83 "HgN/A
1:30 AM79 °FPassing clouds.7 mph70%29.86 "HgN/A
1:00 AM79 °FPassing clouds.9 mph70%29.86 "HgN/A
12:30 AM79 °FPassing clouds.8 mph70%29.86 "HgN/A
12:00 AM79 °FPassing clouds.9 mph70%29.86 "HgN/A
11:30 PM
Wed, Feb 10
79 °FPassing clouds.10 mph70%29.89 "HgN/A
11:00 PM81 °FPassing clouds.8 mph66%29.89 "HgN/A
10:30 PM81 °FPassing clouds.9 mph66%29.89 "HgN/A
10:00 PM81 °FPassing clouds.8 mph66%29.89 "HgN/A
9:30 PM81 °FPassing clouds.8 mph66%29.89 "HgN/A
9:00 PM81 °FPassing clouds.10 mph66%29.89 "HgN/A
8:30 PM81 °FPassing clouds.5 mph66%29.89 "HgN/A
8:00 PM82 °FPassing clouds.6 mph62%29.86 "HgN/A
7:30 PM82 °FPassing clouds.7 mph62%29.86 "HgN/A
7:00 PM82 °FPassing clouds.7 mph58%29.86 "HgN/A
6:30 PM82 °FPassing clouds.8 mph58%29.86 "HgN/A
6:00 PM84 °FPassing clouds.12 mph51%29.86 "HgN/A
Weather by CustomWeather, © 2016

See weather overviewHow to use our weather pages